Flag for Luxembourg Weather past 2 weeks in Luxembourg, Luxembourg

Now
46 °F

Passing clouds.


Feels Like: 40 °F
Forecast: 34 / 44 °F
Wind: 16 mph from Southwest

Location: Luxembourg Airport

Current Time: Mar 3, 2015 at 2:12:10 PM

Latest Report: Mar 3, 2015 at 1:50 PM


Visibility: N/A

Pressure: 30.07 "Hg

Humidity: 66%

Dew point: 36 °F

Location of LuxembourgLocation

Historic Weather in Luxembourg — Graph

°F

Luxembourg temperature yesterday

Maximum temperature yesterday: 45 °F (at 12:20 AM)
Minimum temperature yesterday: 34 °F (at 11:50 PM)
Average temperature yesterday: 41 °F

Past Weeks' High & Low Weather Summary

 TemperatureHumidityPressure
High48 °F (Feb 20, 2:50 PM)100% (Feb 16, 6:20 PM)30.69 "Hg (Feb 16, 6:20 PM)
Low27 °F (Feb 28, 4:50 AM)53% (Feb 28, 3:20 PM)29.42 "Hg (Feb 21, 5:50 AM)
Average36 °F89%29.96 "Hg
* Reported Feb 16 12:20 PM — Mar 3 12:50 PM, Luxembourg, Weather by CustomWeather, © 2015

Note: Actual official high and low records may vary slightly from our data, if they occured in-between our weather recording intervals... More about our weather records

Advertising

Luxembourg weather history for previous 24 hours

 ConditionsComfort  
Time TempWeatherWind HumidityBarometerVisibility
12:50 PM
Tue, Mar 3
45 °FPartly sunny.16 mph71%30.09 "HgN/A
12:20 PM43 °FPartly sunny.16 mph71%30.09 "HgN/A
11:50 AM43 °FPassing clouds.15 mph71%30.12 "HgN/A
11:20 AM41 °FScattered clouds.10 mph76%30.12 "HgN/A
10:50 AM39 °FPartly sunny.9 mph75%30.12 "HgN/A
10:20 AM37 °FPartly sunny.8 mph81%30.12 "HgN/A
9:50 AM37 °FPassing clouds.8 mph81%30.12 "HgN/A
9:20 AM36 °FPassing clouds.9 mph81%30.12 "HgN/A
8:50 AM34 °FPassing clouds.10 mph87%30.12 "HgN/A
8:20 AM32 °FSunny.12 mph93%30.12 "Hg10 mi
7:50 AM30 °FSunny.7 mph93%30.12 "Hg10 mi
7:20 AM28 °FPassing clouds.6 mph100%30.12 "HgN/A
6:50 AM30 °FClear.3 mph93%30.12 "Hg10 mi
6:20 AM30 °FClear.6 mph93%30.12 "Hg10 mi
5:50 AM30 °FClear.6 mph93%30.12 "Hg10 mi
5:20 AM30 °FClear.7 mph93%30.12 "Hg10 mi
4:50 AM30 °FPassing clouds.6 mph93%30.12 "HgN/A
4:20 AM32 °FPassing clouds.7 mph87%30.12 "HgN/A
3:50 AM32 °FClear.6 mph87%30.12 "Hg10 mi
3:20 AM32 °FChilly.5 mph87%30.12 "HgN/A
2:50 AM30 °FClear.3 mph86%30.12 "Hg10 mi
2:20 AM30 °FChilly.5 mph93%30.09 "HgN/A
1:50 AM30 °FChilly.6 mph93%30.09 "HgN/A
1:20 AM34 °FClear.8 mph81%30.09 "Hg10 mi
12:50 AM34 °FClear.7 mph81%30.09 "Hg10 mi
12:20 AM34 °FPassing clouds.7 mph81%30.07 "HgN/A
11:50 PM
Mon, Mar 2
34 °FPassing clouds.6 mph81%30.07 "HgN/A
11:20 PM36 °FClear.12 mph75%30.07 "Hg10 mi
10:50 PM36 °FClear.10 mph75%30.04 "Hg10 mi
10:20 PM36 °FClear.12 mph75%30.04 "Hg10 mi
9:50 PM37 °FClear.10 mph70%30.04 "Hg10 mi
9:20 PM37 °FPassing clouds.14 mph65%30.01 "HgN/A
8:50 PM37 °FPassing clouds.13 mph65%29.98 "HgN/A
8:20 PM37 °FPassing clouds.15 mph65%29.98 "HgN/A
7:50 PM37 °FPassing clouds.16 mph65%29.95 "HgN/A
7:20 PM39 °FPassing clouds.17 mph61%29.95 "HgN/A
6:50 PM39 °FClear.18 mph56%29.92 "Hg10 mi
6:20 PM39 °FPassing clouds.17 mph61%29.89 "HgN/A
5:50 PM41 °FPassing clouds.25 mph57%29.86 "HgN/A
5:20 PM41 °FPassing clouds.20 mph70%29.83 "HgN/A
4:50 PM41 °FPassing clouds.21 mph76%29.83 "HgN/A
4:20 PM39 °FScattered clouds.21 mph87%29.83 "HgN/A
3:50 PM39 °FScattered clouds.21 mph93%29.80 "HgN/A
3:20 PM36 °FSprinkles. Partly sunny.21 mph100%29.80 "HgN/A
2:50 PM43 °FBroken clouds.21 mph71%29.77 "HgN/A
2:20 PM43 °FScattered clouds.22 mph71%29.77 "HgN/A
Weather by CustomWeather, © 2015

See weather overviewHow to use our weather pages